Regional Weather Roundup
Issued by NWS

Home | Current Version | Previous Version | Text Only | Print | Product List | Glossary On
Versions: 1 2 3 4 5 6 7 8 9 10 11 12 13 14 15 16 17 18 19 20 21 22 23 24 25 26 27 28 29 30 31 32 33 34 35 36 37 38 39 40 41 42 43 44 45 46 47 48 49 50
000
ASUS43 KMKX 041400
RWRWI

WISCONSIN REGIONAL WEATHER ROUNDUP
NATIONAL WEATHER SERVICE MILWAUKEE/SULLIVAN WI
900 AM CDT SAT JUL 04 2015

NOTE: "FAIR" INDICATES FEW OR NO CLOUDS BELOW 12,000 FEET WITH NO
SIGNIFICANT WEATHER AND/OR OBSTRUCTIONS TO VISIBILITY.

WIZ001-002-006>008-014>016-023>028-041500-
NORTHWEST WISCONSIN

CITY           SKY/WX    TMP DP  RH WIND       PRES   REMARKS
SUPERIOR ARPT  SUNNY     64  59  84 NE8       29.98R
ASHLAND        MOSUNNY   66  62  87 CALM      29.98S FOG
HAYWARD        SUNNY     69  62  78 CALM      29.98R HAZE
SIREN          CLOUDY    64  63  97 CALM      29.96S FOG
CUMBERLAND     SUNNY     64  63  94 CALM      29.97R FOG
RICE LAKE      CLOUDY    63  62  96 CALM      29.98S FOG
CHETEK         SUNNY     67  63  87 CALM      29.96S
LADYSMITH      SUNNY     66  63  89 CALM      29.99S
EAU CLAIRE     NOT AVBL
MENOMONIE      SUNNY     67  60  78 CALM      29.96S
NEW RICHMOND   SUNNY     67  64  87 CALM      29.96S
OSCEOLA        SUNNY     67  67  99 CALM      29.98S
$$

WIZ003>005-009-010-017-018-041500-
NORTH CENTRAL WISCONSIN

CITY           SKY/WX    TMP DP  RH WIND       PRES   REMARKS
MANITOWISH WTR SUNNY     64  64  99 CALM      29.99S
ARBOR VITAE    SUNNY     64  63  96 CALM      29.99S
WOODRUFF       SUNNY     64  63  96 CALM      29.99S
RHINELANDER    SUNNY     67  60  78 E7        30.00S
EAGLE RIVER    SUNNY     63  63 100 CALM      29.99S
LAND O LAKES   SUNNY     66  60  80 CALM      30.01S
PHILLIPS       SUNNY     65  62  89 CALM      29.99R
TOMAHAWK       PTSUNNY   62  61  97 CALM      30.00S FOG
MEDFORD        SUNNY     65  61  88 CALM      29.99R
MERRILL        SUNNY     62  61  97 CALM      29.99S
$$

WIZ029-030-035-036-043>047-041500-
CENTRAL WISCONSIN

CITY           SKY/WX    TMP DP  RH WIND       PRES   REMARKS
WAUSAU         SUNNY     69  59  70 N5        29.97R
MOSINEE        SUNNY     66  61  82 VRB5      29.99S
MARSHFIELD     SUNNY     69  59  70 NW5       29.98R
STEVENS POINT  SUNNY     65  58  79 CALM      29.98S
WAUPACA        SUNNY     71  61  71 W5        29.97S
WAUTOMA        NOT AVBL
WISC RAPIDS    SUNNY     69  58  67 CALM      29.99R
CAMP DOUGLAS   SUNNY     70  69  96 W2        29.97R
$$

WIZ011>013-019>022-031-037>040-048>050-041500-
NORTHEAST WISCONSIN

CITY           SKY/WX    TMP DP  RH WIND       PRES   REMARKS
ANTIGO         SUNNY     65  61  87 NE3       29.99S
SHAWANO        SUNNY     69  61  76 NE5       29.97S
OCONTO         SUNNY     66  62  85 E5        29.96S
STURGEON BAY   SUNNY     68  61  77 NE5       29.99R
GREEN BAY      SUNNY     72  62  71 N5        29.97R
MANITOWOC      NOT AVBL
APPLETON       SUNNY     66  57  72 W7        29.97R
CLINTONVILLE   SUNNY     68  59  73 N3        29.96S
OSHKOSH        SUNNY     71  61  70 CALM      29.97R
$$

WIZ032>034-041-042-053>061-041500-
SOUTHWEST WISCONSIN

CITY           SKY/WX    TMP DP  RH WIND       PRES   REMARKS
LA CROSSE      SUNNY     69  60  73 S6        29.97R
SPARTA         MOSUNNY   66  58  74 CALM      29.98S
VIROQUA        SUNNY     67  60  78 W3        29.99S
BOSCOBEL       SUNNY     67  61  81 VRB3      29.99R
PRAIRIE DU CHI SUNNY     64  59  85 CALM      29.99S
PLATTEVILLE    SUNNY     65  60  82 SW3       30.00S
$$

WIZ056-057-062-063-064-067-068-041500-
SOUTH CENTRAL WISCONSIN

CITY           SKY/WX    TMP DP  RH WIND       PRES   REMARKS
REEDSBURG      SUNNY     64  61  87 CALM      29.98R
BARABOO/DELLS  SUNNY     66  59  78 CALM      29.98S
LONE ROCK      NOT AVBL
MINERAL POINT  SUNNY     66  61  82 CALM      30.01R
MADISON        SUNNY     70  58  65 NW3       29.98S
MIDDLETON      SUNNY     68  59  72 W5        29.99S
WATERTOWN      SUNNY     65  62  89 CALM      29.99R
MONROE         SUNNY     68  55  64 W7        30.00S
JANESVILLE     SUNNY     68  57  68 W3        29.99R
$$

WIZ051-052-058>065-066-070>072-041500-
SOUTHEAST WISCONSIN

CITY           SKY/WX    TMP DP  RH WIND       PRES   REMARKS
MILWAUKEE      PTSUNNY   71  57  61 NW7       29.98R
WAUKESHA       SUNNY     66  57  72 W7        30.00R
MILWAUKEE/TIMM SUNNY     70  57  64 W6        29.99R
RACINE         SUNNY     71  57  61 W8        30.00R
BURLINGTON     SUNNY     66  59  77 CALM      29.99R
KENOSHA        SUNNY     71  59  65 NW7       29.99R
FOND DU LAC    SUNNY     69  61  75 SW3       29.98R
SHEBOYGAN      SUNNY     71  60  68 W5        29.97R
WEST BEND      SUNNY     68  59  73 W5        29.98S
JUNEAU         SUNNY     65  59  82 SW3       30.00R
$$

LSZ147-162-041500-
LAKE SUPERIOR

STATION/POSITION TIME  TEMP    WIND        PRES    WAVE
                       AIR SEA DIR/SP/G            HT/PER
                 (UTC) (F)     (DEG/KT/KT) (MB)    (FT/S)
W MID LAKE BUOY  1250   42 38   40/  6/  6 1015.9R   0
DEVILS ISLAND    1300   58      60/  7/  8 1015.5R
SAXON HARBOR     1300   61        CALM     1014.6
$$

LMZ867-665-643>646-041500-
LAKE MICHIGAN

STATION/POSITION TIME  TEMP    WIND        PRES    WAVE
                       AIR SEA DIR/SP/G            HT/PER
                 (UTC) (F)     (DEG/KT/KT) (MB)    (FT/S)
CHAMBERS ISLAND  1300   64      20/  7/  9 1014.9R
N MID LAKE BUOY  1250   49 43  350/  2/  4 1014.5R   1/ 3
NORTHPORT PIER   1300   63     100/  2/  5 1014.6R
SISTER BAY       1344   71     130/  8/ 13   N/A
ALGOMA LAKESHORE 1210          310/  6/  7   N/A
KEWAUNEE LAKESHO 1300   67     300/  3/  7 1013.6R
SHEBOYGAN LAKESH 1300   67     270/  8/ 10 1014.4S
PORT WASHINGTON  1340   72     290/  6/  9 1015.2S
ATWATER BUOY     1300   65 59  270/  8/ 10 1016.2R
MILWAUKEE LAKESH 1300   68     300/  8/  9   N/A
KENOSHA   LAKESH 1300   68     280/  7/ 10 1014.9S
$$

TC  - TEMPERATURE IN CELSIUS
VSB - VISIBILITY IN STATUTE MILES
WCI - WIND CHILL INDEX
HX  - HEAT INDEX



USA.gov is the U.S. government's official web portal to all federal, state and local government web resources and services.